User: anonymous   Login
Location: Sankt Anna
(58.3452°N, 16.7040°E)
Time: 19:36:49
(UTC+02:00)
Language:

UNISAT 6 - Orbit

View from above orbital plane
View from above orbital plane
View from above satellite
View from above satellite

Ground track
Ground track

The orbit data is extracted from the following two-line orbital elements,

1 40012U 14033C   19144.55815761  .00000120  00000-0  25238-4 0  9992
2 40012  97.7610  12.2484 0058290 177.5122 182.6388 14.73967279264989
Epoch (UTC): 24 May 2019 13:23:44
Eccentricity: 0.0058290
inclination: 97.7610°
perigee height: 607 km
apogee height: 689 km
right ascension of ascending node: 12.2484°
argument of perigee: 177.5122°
revolutions per day: 14.73967279
mean anomaly at epoch: 182.6388°
orbit number at epoch: 26498

The dashed part of the orbit path shows where the satellite is in the earth's shadow,  

DLR